LDPE-3A

Last updated on Fri Oct 31 2025 00:02:50 GMT+0000 (Coordinated Universal Time)

1 55264U 23008B 25303.26362704 .00000145 00000+0 00000+0 0 9996 2 55264 1.6833 84.0304 0000585 145.6246 302.5089 1.00565822 9511
UTC large
Height (km)
Speed (km/s)
/
Latitude / Longitude
Inclination (degrees)
Orbital Period (minutes)
Azimuth
Elevation
Range (km)
Doppler Factor

Next 0 passes for location: London (51.5072 / 0.1276)

Sorry there are no passes over London.